Anoka County, MN

5:24 PM CDT on May 24, 2018 (GMT -0500)
Anoka County / Blaine Airport

Weather History for KANE - September, 2013

Change the Weather History Date:

Saturday, September 21, 2013

  Actual Average Record
Temperature  
Mean Temperature 55 °F -  
Max Temperature 64 °F 66 °F 87 °F (2005)
Min Temperature 46 °F 46 °F 33 °F (1999)
Degree Days  
Heating Degree Days 10    
Growing Degree Days 5 (Base 50)    
Moisture  
Dew Point 47 °F    
Average Humidity 86    
Maximum Humidity 100    
Minimum Humidity 52    
Precipitation  
Precipitation 0.00 in - - ()
Sea Level Pressure  
Sea Level Pressure 29.95 in    
Wind  
Wind Speed 5 mph (WNW)    
Max Wind Speed 10 mph    
Max Gust Speed 16 mph    
Visibility 10 miles    
Events      
Averages and records for this station are not official NWS values.
T = Trace of Precipitation, MM = Missing Value Source: NWS Daily Summary

Daily Weather History Graph

Daily Weather History Graph

Search for Another Location

Airport or City:

Astronomy

Sep. 21, 2013 Rise Set
Actual Time 6:59 AM CDT 7:11 PM CDT
Civil Twilight 6:29 AM CDT 7:41 PM CDT
Nautical Twilight 5:54 AM CDT 8:15 PM CDT
Astronomical Twilight 5:19 AM CDT 8:50 PM CDT
Moon 8:13 PM CDT (9/21) 9:26 AM CDT (9/21)
Length of Visible Light 13h 11m
Length of Day
12h 12m
Waning Gibbous, 94% of the Moon is Illuminated
Sep 21
Waning Gibbous
Sep 26
Last Quarter
Oct 4
New
Oct 11
First Quarter
Oct 18
Full

Hourly Weather History & Observations

Time (CDT) Temp. Windchill Dew Point Humidity Pressure Visibility Wind Dir Wind Speed Gust Speed Precip Events Conditions
12:14 AM 50.0 °F - 48.2 °F 94% 29.93 in 10.0 mi West 6.9 mph - N/A   Clear
12:33 AM 50.0 °F - 48.2 °F 94% 29.93 in 10.0 mi West 6.9 mph - N/A   Clear
12:54 AM 48.2 °F - 46.4 °F 93% 29.94 in 10.0 mi West 4.6 mph - N/A   Clear
1:14 AM 50.0 °F - 48.2 °F 94% 29.94 in 10.0 mi West 5.8 mph - N/A   Scattered Clouds
1:33 AM 51.8 °F - 48.2 °F 88% 29.94 in 10.0 mi West 5.8 mph - N/A   Overcast
1:54 AM 50.0 °F - 48.2 °F 94% 29.94 in 10.0 mi WNW 5.8 mph - N/A   Mostly Cloudy
2:14 AM 50.0 °F - 48.2 °F 94% 29.93 in 10.0 mi WNW 5.8 mph - N/A   Clear
2:33 AM 50.0 °F - 46.4 °F 87% 29.93 in 10.0 mi WNW 6.9 mph - N/A   Clear
2:54 AM 48.2 °F - 46.4 °F 93% 29.93 in 10.0 mi West 6.9 mph - N/A   Clear
3:14 AM 48.2 °F - 46.4 °F 93% 29.94 in 10.0 mi West 6.9 mph - N/A   Clear
3:34 AM 48.2 °F - 46.4 °F 93% 29.94 in 10.0 mi West 5.8 mph - N/A   Clear
3:54 AM 48.2 °F - 46.4 °F 93% 29.95 in 10.0 mi West 5.8 mph - N/A   Clear
4:14 AM 48.2 °F - 46.4 °F 93% 29.95 in 10.0 mi West 5.8 mph - N/A   Clear
4:34 AM 46.4 °F 43.5 °F 46.4 °F 100% 29.95 in 10.0 mi West 5.8 mph - N/A   Clear
4:54 AM 46.4 °F 43.5 °F 46.4 °F 100% 29.96 in 10.0 mi West 5.8 mph - N/A   Scattered Clouds
5:13 AM 48.2 °F - 48.2 °F 100% 29.96 in 10.0 mi West 6.9 mph - N/A   Overcast
5:34 AM 48.2 °F - 48.2 °F 100% 29.96 in 10.0 mi West 6.9 mph - N/A   Mostly Cloudy
5:53 AM 48.2 °F - 48.2 °F 100% 29.96 in 10.0 mi West 8.1 mph - N/A   Overcast
6:14 AM 48.2 °F - 48.2 °F 100% 29.97 in 10.0 mi West 4.6 mph - N/A   Overcast
6:34 AM 50.0 °F - 48.2 °F 94% 29.97 in 10.0 mi WNW 4.6 mph - N/A   Overcast
6:45 AM 50.0 °F - 46.4 °F 87% 29.97 in 10.0 mi WNW 5.8 mph - N/A   Overcast
6:53 AM 50.0 °F - 46.4 °F 87% 29.97 in 10.0 mi West 5.8 mph - N/A   Overcast
7:45 AM 50.0 °F - 46.4 °F 87% 29.97 in 10.0 mi WNW 5.8 mph - N/A   Mostly Cloudy
8:45 AM 51.8 °F - 46.4 °F 82% 29.98 in 10.0 mi WNW 8.1 mph - N/A   Mostly Cloudy
9:45 AM 53.6 °F - 46.4 °F 77% 29.99 in 10.0 mi WNW 6.9 mph - N/A   Mostly Cloudy
10:22 AM 55.4 °F - 46.4 °F 72% 29.99 in 10.0 mi NNW 10.4 mph 16.1 mph N/A   Mostly Cloudy
10:59 AM 55.4 °F - 44.6 °F 67% 29.99 in 10.0 mi NW 10.4 mph - N/A   Overcast
11:50 AM 55.4 °F - 46.4 °F 72% 30.00 in 10.0 mi NW 3.5 mph - N/A   Overcast
12:55 PM 57.2 °F - 46.4 °F 67% 29.99 in 10.0 mi NW 4.6 mph - N/A   Overcast
1:48 PM 62.6 °F - 46.4 °F 55% 29.97 in 10.0 mi West 8.1 mph - N/A   Mostly Cloudy
2:50 PM 62.6 °F - 46.4 °F 55% 29.96 in 10.0 mi WNW 9.2 mph - N/A   Mostly Cloudy
3:50 PM 62.6 °F - 46.4 °F 55% 29.94 in 10.0 mi NW 6.9 mph - N/A   Partly Cloudy
4:50 PM 64.4 °F - 46.4 °F 52% 29.92 in 10.0 mi WNW 4.6 mph - N/A   Clear
5:45 PM 62.6 °F - 46.4 °F 55% 29.92 in 10.0 mi NW 5.8 mph - N/A   Clear
6:45 PM 60.8 °F - 46.4 °F 59% 29.92 in 10.0 mi Calm Calm - N/A   Clear
7:45 PM 55.4 °F - 48.2 °F 77% 29.92 in 10.0 mi Calm Calm - N/A   Clear
8:45 PM 51.8 °F - 48.2 °F 88% 29.93 in 10.0 mi Calm Calm - N/A   Clear
9:13 PM 50.0 °F - 48.2 °F 94% 29.94 in 10.0 mi Calm Calm - N/A   Clear
9:34 PM 48.2 °F - 46.4 °F 93% 29.94 in 10.0 mi Calm Calm - N/A   Clear
9:45 PM 48.2 °F - 46.4 °F 93% 29.94 in 10.0 mi Calm Calm - N/A   Clear
9:54 PM 48.2 °F - 46.4 °F 93% 29.94 in 10.0 mi Calm Calm - N/A   Clear
10:13 PM 48.2 °F - 46.4 °F 93% 29.94 in 7.0 mi Calm Calm - N/A   Clear
10:34 PM 46.4 °F - 46.4 °F 100% 29.95 in 7.0 mi Calm Calm - N/A   Clear
10:53 PM 46.4 °F - 46.4 °F 100% 29.95 in 10.0 mi Calm Calm - N/A   Clear
11:14 PM 46.4 °F - 46.4 °F 100% 29.95 in 10.0 mi Calm Calm - N/A   Clear
11:34 PM 46.4 °F - 44.6 °F 93% 29.95 in 10.0 mi Calm Calm - N/A   Clear
11:53 PM 46.4 °F - 44.6 °F 93% 29.95 in 10.0 mi Calm Calm - N/A   Clear